Date String (YYYY-MM-DD hh:mm:ss) UTC,Instrument flags,Ambient pressure (hPa),Sample flow (lpm),Bypass flow (lpm),Sample temperature (°C),Ambient temperature (°C),ASC tube jacket temperature (°C),LED temperature (°C),Box temperature (°C),Sample RH (%),Span deviation,Mass concentration (μg/m³),Mass concentration (μg/m³),Mass concentration (μg/m³)
DateTimeUTC,F1_M11,P_M11,Q1_M11,Q2_M11,T1_M11,T2_M11,T3_M11,T4_M11,T5_M11,U1_M11,ZSPAN_M11,X0_M11,X2_M11,X1_M11
2023-05-15 06:00:00,,0844.3,5.00,0.00,28.5,26.8,00.0,37.0,30.1,27.2,0000.0,0002.02,0001.88,0001.78
2023-05-15 06:01:00,,0844.4,5.00,0.00,28.5,26.8,00.0,37.0,30.1,27.2,0000.0,0002.02,0001.90,0001.81
2023-05-15 06:02:00,,0844.4,4.98,0.00,28.5,26.8,00.0,36.9,30.1,27.2,0000.0,0002.02,0001.92,0001.83
2023-05-15 06:03:00,,0844.4,5.00,0.00,28.5,26.8,00.0,36.9,30.1,27.3,0000.0,0002.05,0001.94,0001.85
2023-05-15 06:04:00,,0844.4,5.01,0.00,28.5,26.8,00.0,36.9,30.1,27.3,0000.0,0002.08,0001.94,0001.85
2023-05-15 06:05:00,,0844.4,5.00,0.00,28.5,26.8,00.0,36.9,30.1,27.3,0000.0,0002.02,0001.92,0001.84
2023-05-15 06:06:00,,0844.5,4.98,0.00,28.5,26.8,00.0,36.9,30.1,27.3,0000.0,0001.96,0001.89,0001.82
2023-05-15 06:07:00,,0844.5,5.00,0.00,28.5,26.8,00.0,36.9,30.1,27.3,0000.0,0001.94,0001.87,0001.82
2023-05-15 06:08:00,,0844.5,5.01,0.00,28.5,26.8,00.0,36.9,30.1,27.3,0000.0,0001.97,0001.89,0001.83
2023-05-15 06:09:00,,0844.5,4.99,0.00,28.5,26.8,00.0,36.9,30.1,27.3,0000.0,0002.01,0001.91,0001.84
2023-05-15 06:10:00,,0844.4,5.00,0.00,28.5,26.8,00.0,36.9,30.1,27.3,0000.0,0002.02,0001.91,0001.83
2023-05-15 06:11:00,,0844.5,5.02,0.00,28.5,26.8,00.0,36.9,30.1,27.3,0000.0,0002.04,0001.93,0001.85
2023-05-15 06:12:00,,0844.4,5.00,0.00,28.5,26.8,00.0,36.9,30.1,27.3,0000.0,0002.10,0001.97,0001.88
2023-05-15 06:13:00,,0844.5,5.00,0.00,28.5,26.8,00.0,36.9,30.1,27.2,0000.0,0002.13,0002.01,0001.92
2023-05-15 06:14:00,,0844.4,4.99,0.00,28.5,26.8,00.0,36.9,30.1,27.3,0000.0,0002.16,0002.06,0001.98
2023-05-15 06:15:00,,0844.4,5.00,0.00,28.5,26.8,00.0,36.9,30.1,27.3,0000.0,0002.17,0002.09,0002.02
2023-05-15 06:16:00,,0844.4,5.00,0.00,28.5,26.8,00.0,36.9,30.0,27.2,0000.0,0002.24,0002.16,0002.08
2023-05-15 06:17:00,,0844.4,5.01,0.00,28.5,26.8,00.0,36.9,30.0,27.2,0000.0,0002.31,0002.23,0002.14
2023-05-15 06:18:00,,0844.4,4.99,0.00,28.5,26.8,00.0,36.9,30.1,27.2,0000.0,0002.34,0002.27,0002.18
2023-05-15 06:19:00,,0844.4,5.01,0.00,28.5,26.8,00.0,36.9,30.1,27.3,0000.0,0002.34,0002.29,0002.22
2023-05-15 06:20:00,,0844.4,5.01,0.00,28.5,26.8,00.0,36.9,30.0,27.3,0000.0,0002.32,0002.30,0002.24
2023-05-15 06:21:00,,0844.4,5.01,0.00,28.5,26.8,00.0,36.9,30.0,27.3,0000.0,0002.32,0002.32,0002.26
2023-05-15 06:22:00,,0844.4,4.98,0.00,28.5,26.8,00.0,36.9,30.1,27.3,0000.0,0002.32,0002.33,0002.28
2023-05-15 06:23:00,,0844.5,5.01,0.00,28.5,26.8,00.0,36.8,30.1,27.3,0000.0,0002.33,0002.34,0002.30
2023-05-15 06:24:00,,0844.5,5.01,0.00,28.5,26.8,00.0,36.8,30.0,27.4,0000.0,0002.32,0002.34,0002.30
2023-05-15 06:25:00,,0844.5,5.00,0.00,28.5,26.8,00.0,36.8,30.0,27.3,0000.0,0002.28,0002.31,0002.27
2023-05-15 06:26:00,,0844.5,4.98,0.00,28.5,26.8,00.0,36.8,30.0,27.3,0000.0,0002.28,0002.31,0002.26
2023-05-15 06:27:00,,0844.5,5.01,0.00,28.5,26.8,00.0,36.8,30.0,27.3,0000.0,0002.29,0002.30,0002.25
2023-05-15 06:28:00,,0844.5,5.01,0.00,28.5,26.8,00.0,36.8,30.0,27.3,0000.0,0002.23,0002.27,0002.23
2023-05-15 06:29:00,,0844.5,5.01,0.00,28.5,26.8,00.0,36.8,30.0,27.3,0000.0,0002.21,0002.24,0002.21
2023-05-15 06:30:00,,0844.5,5.01,0.00,28.5,26.8,00.0,36.8,30.0,27.3,0000.0,0002.18,0002.21,0002.18
2023-05-15 06:31:00,,0844.5,5.01,0.00,28.4,26.8,00.0,36.8,30.0,27.3,0000.0,0002.16,0002.18,0002.14
2023-05-15 06:32:00,,0844.5,4.98,0.00,28.4,26.8,00.0,36.8,30.0,27.3,0000.0,0002.12,0002.13,0002.09
2023-05-15 06:33:00,,0844.5,5.01,0.00,28.4,26.8,00.0,36.8,30.0,27.4,0000.0,0002.07,0002.08,0002.05
2023-05-15 06:34:00,,0844.5,5.00,0.00,28.4,26.8,00.0,36.8,30.0,27.3,0000.0,0002.00,0002.01,0001.98
2023-05-15 06:35:00,,0844.5,5.01,0.00,28.4,26.8,00.0,36.8,30.0,27.3,0000.0,0001.94,0001.94,0001.92
2023-05-15 06:36:00,,0844.5,5.00,0.00,28.4,26.8,00.0,36.8,30.0,27.3,0000.0,0001.92,0001.89,0001.86
2023-05-15 06:37:00,,0844.5,4.98,0.00,28.5,26.8,00.0,36.8,30.0,27.4,0000.0,0001.85,0001.81,0001.78
2023-05-15 06:38:00,,0844.5,5.00,0.00,28.4,26.8,00.0,36.8,30.0,27.3,0000.0,0001.83,0001.76,0001.72
2023-05-15 06:39:00,,0844.5,5.00,0.00,28.4,26.8,00.0,36.8,30.0,27.3,0000.0,0001.77,0001.68,0001.64
2023-05-15 06:40:00,,0844.5,5.01,0.00,28.4,26.8,00.0,36.8,30.0,27.2,0000.0,0001.70,0001.61,0001.56
2023-05-15 06:41:00,,0844.5,4.98,0.00,28.4,26.8,00.0,36.8,30.0,27.3,0000.0,0001.67,0001.55,0001.50
2023-05-15 06:42:00,,0844.5,5.00,0.00,28.4,26.8,00.0,36.8,30.0,27.3,0000.0,0001.63,0001.49,0001.44
2023-05-15 06:43:00,,0844.5,5.00,0.00,28.4,26.8,00.0,36.8,30.0,27.3,0000.0,0001.61,0001.46,0001.40
2023-05-15 06:44:00,,0844.5,5.01,0.00,28.4,26.8,00.0,36.8,30.0,27.3,0000.0,0001.56,0001.41,0001.35
2023-05-15 06:45:00,,0844.5,5.00,0.00,28.4,26.8,00.0,36.8,30.0,27.4,0000.0,0001.52,0001.37,0001.31
2023-05-15 06:46:00,,0844.5,5.01,0.00,28.4,26.8,00.0,36.8,30.0,27.4,0000.0,0001.47,0001.32,0001.27
2023-05-15 06:47:00,,0844.5,5.00,0.00,28.4,26.8,00.0,36.8,30.0,27.4,0000.0,0001.40,0001.28,0001.23
2023-05-15 06:48:00,,0844.5,4.99,0.00,28.4,26.8,00.0,36.8,30.0,27.4,0000.0,0001.38,0001.25,0001.20
2023-05-15 06:49:00,,0844.5,4.99,0.00,28.4,26.8,00.0,36.8,30.0,27.3,0000.0,0001.29,0001.20,0001.17
2023-05-15 06:50:00,,0844.5,4.99,0.00,28.4,26.8,00.0,36.8,30.0,27.4,0000.0,0001.29,0001.18,0001.15
2023-05-15 06:51:00,,0844.6,5.00,0.00,28.4,26.8,00.0,36.8,30.0,27.4,0000.0,0001.27,0001.17,0001.14
2023-05-15 06:52:00,,0844.5,5.00,0.00,28.4,26.8,00.0,36.8,30.0,27.3,0000.0,0001.26,0001.16,0001.13
2023-05-15 06:53:00,,0844.5,5.00,0.00,28.4,26.8,00.0,36.8,30.0,27.3,0000.0,0001.24,0001.16,0001.13
2023-05-15 06:54:00,,0844.5,5.00,0.00,28.4,26.8,00.0,36.8,30.0,27.3,0000.0,0001.25,0001.17,0001.14
2023-05-15 06:55:00,,0844.5,4.98,0.00,28.4,26.8,00.0,36.8,30.0,27.3,0000.0,0001.25,0001.18,0001.15
2023-05-15 06:56:00,,0844.5,5.01,0.00,28.4,26.8,00.0,36.8,30.0,27.3,0000.0,0001.27,0001.19,0001.16
2023-05-15 06:57:00,,0844.5,5.00,0.00,28.4,26.8,00.0,36.8,30.0,27.3,0000.0,0001.28,0001.20,0001.17
2023-05-15 06:58:00,,0844.5,5.00,0.00,28.4,26.8,00.0,36.8,30.0,27.3,0000.0,0001.30,0001.22,0001.18
2023-05-15 06:59:00,,0844.5,5.00,0.00,28.4,26.8,00.0,36.8,30.0,27.3,0000.0,0001.31,0001.23,0001.19
